Timeline UpdatesTrip UpdatesNews PostsPvt Posts♥♥Travel TipsAdmin PostsConv PostsFollowed PostsChat RequestsBlog PostsPNR Posts

Disclaimer
Search
 
 
Sun Nov 23, 2014 14:15:09 ISTHomeTrainsΣChainsAtlasPNRForumGalleryNewsFAQTripsMembersLoginFeedback
PNR Super Search

Ticket PNR Status Inquiry - PNR: 660-xxxxxxx (PRS)

OLD STATUS

Status Last Updated on: Jun 10 2012 (6:53AM) IST

Date of Journey: Mon Jun 11, 2012   Class: Sleeper - SL
Passenger 1: Confirmed (Booking Status: RAC 22,RLGN)
Passenger 2: Confirmed (Booking Status: RAC 23,RLGN)
Chart NOT Prepared

Samaleshwari Express/18006

Travel Time: 9h 17m    16 halts    Distance: 443 km    Avg Speed: 47 km/hr
Type: Mail/Express
Zone: SER/South Eastern
Departs @ 21:08 (Avg 31m late)
Platform# 2
SMTWTFS
Raj Gangpur/GP 
Arrives @ 06:25 +1 night (Avg 8m late)
Platform# 17
SMTWTFS
Kolkata Howrah Junction/HWH 

16 halts. 81 intermediate Stations between Raj Gangpur and Kolkata Howrah Junction

Show ALL intermediate Stations  Show Old Time-Table

#TrkCodeStation NameX/OArrivesAvgDepartsAvgHaltPFDay#KmSpeedElevZoneAddress
1/--/JDBJagdalpur  -04:15+0--1-721.759569mECoRJagdalpur, Chhattisgarh
2/--/JYPJeypore (1)  05:21 05:20-205:22+21 2m--1-657.334595mECoRJeypore, Odisha
3/--/KRPUKoraput Junction (3)06:35+207:00+525m--1-616.346881mECoRkoraput ph.no. 06852-251502, Odisha
4/--|DMNJDamanjodi  07:26 07:25+1307:27+131 2m--1-597.350897mECoRDamanjodi, Odisha
5|--|LKMRLaxmipur Road (1)  08:14 08:18+1408:15 08:20+151 2m11-554.946898mECoRLakshmipur, Odisha
6|--|TKRITikiri  08:44 08:48+1408:45 08:50+141 2m--1-533.345827mECoRTikri, Odisha
7%==%RGDARayagada (3)10:50+511:10+820m11-443.337229mECoRRayagada ph.no 06856-222407, Odisha
8%==%SPRDSingapuram Road (2)  11:26 11:25+511:27+61 2m--1-434.151248mECoRJaykaypur, Odisha
9%==%THVTherubaliX  11:39 11:38+1311:40+131 2m--1-424.765270mECoRRayagada, Odisha
10%==%MNGDMuniguda  12:14 12:13+2012:15+201 2m--1-388.775335mECoRMuniguda, Odisha
11%==%AMBAmbodala  12:36 12:35+2312:37+241 2m--1-363.771374mECoRState Highway 6, Odisha
12%==%NRLRNorla RoadX  13:01 12:58+2113:02 13:00+211 2m--1-338.750247mECoRKalahandi, Odisha
13%==%RPRDRupra RoadX  13:11 13:08+2113:12 13:10+211 2m--1-332.175233mECoRKalahandi, Odisha
14%==%KSNGKesinga (1)  13:31 13:23+2313:32 13:25+251 2m11-315.933183mECoRKesinga, Odisha
15%=-|TIGTitlagarh Junction (3)  13:55 13:50+1414:05 14:00+1810m--1-301.967212mECoRTitlagarh, Odisha
16|--|BUDMBadmal  14:26 14:18+2414:27 14:20+251 2m--1-282.052209mECoRDumerbahal Rd, Odisha
17|--|SFCSaintala (2)  14:41 14:30+2414:42 14:32+251 2m--1-273.374185mECoRNational Highway 201, Odisha
18|--|BLGRBalangir (3)  15:15 15:00+2415:20 15:05+295m--1-238.665210mECoRBolangir, Odisha
19|--|BRPLBarpali  16:01 15:58+2816:02 16:00+311 2m--1-181.577178mECoRBarpali, Odisha
20|--|BRGABargarh Road (3)  16:15+3216:20+355m--1-162.375185mECoRBargarh, Odisha
21|--|HKGHirakudX  16:44 16:48+3816:45 16:50+401 2m--1-127.27167mECoRBurla, Odisha
22|--|SBPSambalpur Junction (3)  17:50+518:20+630m11-119.818159mECoRSambalpur, Odisha
23|--|SBPDSambalpur Road  18:29 18:25+018:30 18:27+01 2m--1-118.254161mECoRSambalpur, Odisha
24|==!RGLRengali  18:54 18:50+1118:55+101 5m--1-97.529208mECoRState Highway 10, Odisha
25|==|JSGJharsuguda Junction (5)X  19:50+920:00+1710m11-71.173236mSERJharsuguda, Odisha
26/==/BEHBagdihi (3)X  20:18 20:17+2020:19+211 2m--1-50.568257mSERState Highway 24 PH: 06640-286227, Odisha
27/==/BMBBamra (3)  20:34 20:33+1920:35+221 2m--1-34.669259mSERBamra PH : 06642-229268, Odisha
28/==/GPHGarpos (3)X  20:50 20:49+2720:51+281 2m--1-18.569281mSERSundargarh, Odisha
29/==/GPRaj Gangpur (3)»X  21:07+2921:08+311m210.050237mSERRaj Ganpur, Odisha
30/==/KXNKanshbahalX  21:19+3021:20+311m--19.242217mSERSundargarh, Odisha
31/==/KLGKalungaX  21:30+3121:31+321m--116.341203mSERSundargarh, Odisha
32/==/PPOPanposh (2)  21:42+3021:43+311m1123.821190mSERRourkela, Odisha
33/==/ROURourkela Junction (5)  22:00+2022:20+2120m3129.856198mSERRourkela, Odisha
34/==/BZRBisra  22:35+2422:36+251m--143.973224mSERSundargarh, Odisha
35/==/MOUManoharpur  22:57+2522:58+291m--169.668228mSERManoharpur, Jharkhand
36/==/CKPChakradharpur (3)  23:52+2023:59+207m--1130.975235mSERChakradharpur (West Singhbhum), Jharkhand
37/==/RKSNRajkharsawan Junction (3)X  00:15+2100:16+221m--2150.957189mSERSaraikela Kharswan District, Jharkhand
38/==/SINISini Junction (3)X  00:33 00:32+2000:34+201 2m--2166.239182mSERNational Highway 33, Jharkhand
39/==/TATATatanagar Junction (5)X  01:15+601:25+810m42193.185164mSER91-657-2423026, Jharkhand
40/==/JGMJhargram (4)X  02:34 02:33+2002:35+201 2m--2289.15282mSERJhargram, West Bengal
41/==/KGPKharagpur Junction (10)X  03:20+1003:30+810m--2328.26742mSERDist: West Medinipur, West Bengal
42/==/PKUPanskura Junction (6)  04:09 04:10+1404:10 04:12+141 2m--2372.6489mSERPanskura, West Bengal
43/==/BZNBagnan (4)  04:43 04:44+304:44 04:46+61 2m--2398.1558mSERBagnan, West Bengal
44/==/ULBUluberia (6)  04:59 05:00+805:00 05:02+71 2m32411.03810mSERdist - howrah, West Bengal
45/==/SRCKolkata Santragachi Junction (6)  05:42 05:41-105:43+31 2m42435.8117mSERDist: Howrah - 711104, West Bengal
46/==/HWHKolkata Howrah Junction (23)•  06:25+8-172443.2-10mERHowrah 711101, West Bengal
Scroll to Top
Scroll to Bottom